{"data":{"norad_id":68611,"epoch":"2026-05-25T04:45:45.527904Z","epoch_age_seconds":61038,"freshness":"FRESH","line1":"1 68611U 26073K   26145.19844361 -.01189709  00000+0 -14104-1 0  9991","line2":"2 68611  97.2846 344.7902 0000739  97.4120 262.7223 15.63868279  7603","mean_motion":15.63868279,"eccentricity":7.39e-5,"inclination_deg":97.2846,"raan_deg":344.7902,"arg_perigee_deg":97.412,"mean_anomaly_deg":262.7223,"bstar":-0.014104,"rev_number":760,"period_min":92.079366231585,"perigee_km":375.99636785405,"apogee_km":376.99470254275,"semimajor_km":6754.6325351984,"source":"CELESTRAK","updated_at":"2026-05-25T13:38:21.967913Z"}}